www.pogodaiklimat.ru

Погода и климат >> Архив погоды >> Соломоновы Острова >> Остров Таро


ПОГОДА на Острове Таро

  • Прогноз погоды на Острове Таро
  • Монитор погоды на Острове Таро

АРХИВ ПОГОДЫ на Острове Таро

Время (UTC), дата Ветер
(напр.,м/с)
 
Видим.   Явления Облачность Т
(С)
Тd
(С)
f
(%)
Тe
(С)
Тes
(С)
Комфортность P
(гПа)
Po
(гПа)
Тmin
(С)
Tmax
(С)
R
(мм)
R24
(мм)
S
(см)
12 17.01 СВ 2 10 км слаб. морось 10/9 600 м
[Cb cap]
+25.6 +24.6 94 +36 +36 очень
душно
1007.3 1007.0 +33.1 11
18 17.01 штиль 0 20 км слаб. ливневой дождь 10/9
[Cb cap Ac As]
+26.0 +25.3 96 +38 +38 очень
душно
1005.1 1005.0 11
21 17.01 С 2 20 км осадки на расстоянии {ливн. осадки} 9/8
[Cb cap Ac trans Cs]
+28.0 +25.2 85 +41 +41 опасность
перегрева
1006.7 1007.0
00 18.01 С 2 25 км осадки на расстоянии 3/1 300 м
[Cb cap Ci fib]
+31.5 +25.9 72 +47 +62 опасность
перегрева
1007.1 1007.0 40
03 18.01 С 4 25 км осадки на расстоянии 4/1 300 м
[Cb cap Ci fib]
+32.0 +25.7 69 +47 +57 опасность
перегрева
1005.6 1006.0
06 18.01 С 3 25 км осадки на расстоянии 4/4
[Cb cap Ci ing]
+31.5 +25.9 72 +47 +49 опасность
перегрева
1004.3 1004.0
09 18.01 С 2 25 км осадки на расстоянии 4/4
[Cb cap Ci ing]
+28.5 +25.7 85 +42 +42 опасность
перегрева
1006.6 1007.0
12 18.01 штиль 0 25 км осадки на расстоянии 4/1 300 м
[Cb cap Ci ing]
+27.0 +25.7 93 +40 +40 очень
душно
1008.3 1008.0 +32.6
18 18.01 штиль 0 20 км осадки на расстоянии {ливн. осадки} 10/9
[Cu Sc Ac As]
+26.9 +25.7 93 +40 +40 очень
душно
1006.0 1006.0 1
21 18.01 С 2 15 км осадки на расстоянии {морось} 10/9
[Cu Sc Ac As]
+26.0 +25.3 96 +38 +38 очень
душно
1007.6 1008.0
00 19.01 штиль 0 20 км осадки на расстоянии 8/8 600 м
[Cu Sc Ac cuf Ci fib]
+30.6 +25.6 75 +45 +50 опасность
перегрева
1008.4 1008.0 2
03 19.01 Ю 2 15 км слаб. морось 9/9 600 м
[Cu Sc]
+28.0 +26.6 92 +43 +45 опасность
перегрева
1006.9 1007.0
06 19.01 штиль 0 5000 м слаб. дождь {морось} 10/10
[Cu Sc As op]
+26.3 +25.4 95 +38 +38 очень
душно
1006.0 1006.0 4
09 19.01 СВ 2 15 км осадки на расстоянии 10/9
[Cu Sc Ac As]
+26.3 +25.4 95 +38 +38 очень
душно
1006.3 1006.0
12 19.01 штиль 0 20 км осадки на расстоянии 10/9
[Cu Sc Ac As]
+26.0 +25.3 96 +38 +38 очень
душно
1007.8 1008.0 +32.1 1
18 19.01 С 1 20 км осадки на расстоянии 9/8
[Cb cap Ac As Cs]
+25.5 +24.8 96 +36 +36 очень
душно
1005.4 1005.0
21 19.01 В 1 25 км осадки на расстоянии 10/9
[Cb cap Ac As]
+26.3 +24.6 90 +37 +37 очень
душно
1007.7 1008.0
00 20.01 СВ 1 25 км осадки на расстоянии 9/9
[Cb cap Ac trans Cs]
+30.5 +24.8 72 +44 +46 опасность
перегрева
1008.3 1008.0 5
03 20.01 С 2 25 км осадки на расстоянии 9/9
[Cb cap Ac trans Cs]
+30.8 +25.7 74 +45 +47 опасность
перегрева
1006.3 1006.0
06 20.01 С 3 25 км осадки на расстоянии 9/9
[Cb cap Ac trans Cs]
+30.9 +26.7 78 +48 +48 опасность
перегрева
1005.3 1005.0
09 20.01 штиль 0 25 км осадки на расстоянии 10/9
[Cb cap Ac As]
+28.0 +25.9 88 +42 +42 опасность
перегрева
1007.4 1007.0
12 20.01 штиль 0 25 км осадки на расстоянии 9/9
[Cb cap Ac trans Cs]
+27.5 +26.1 92 +41 +41 опасность
перегрева
1008.3 1008.0 +32.1
21 20.01 штиль 0 10 км в посл. час морось {ливн. осадки} 10/9 600 м
[Cb cap]
+25.7 +24.6 94 +36 +36 очень
душно
1007.5 1008.0
00 21.01 Ю 2 25 км осадки на расстоянии 6/6
[Cu med, cong Ac trans Ci fib]
+30.5 +25.7 76 +45 +53 опасность
перегрева
1007.9 1008.0 12
03 21.01 ЮВ 3 20 км осадки на расстоянии 8/8
[Cu Sc Ac trans Ci fib]
+31.0 +26.0 75 +46 +49 опасность
перегрева
1006.6 1007.0
06 21.01 ЮВ 2 20 км осадки на расстоянии 8/8
[Cu Sc Ac trans Ci fib]
+30.4 +25.7 76 +45 +46 опасность
перегрева
1005.7 1006.0
18 21.01 штиль 0 20 км осадки на расстоянии 10/9
[Cb cap Ac trans Cs]
+27.1 +25.4 90 +39 +39 очень
душно
1005.9 1006.0
21 21.01 Ю 2 25 км осадки на расстоянии 1/1 300 м
[Cb cap Ci fib]
+29.5 +26.0 81 +44 +47 опасность
перегрева
1007.1 1007.0
00 22.01 ЮЗ 2 25 км осадки на расстоянии 1/1 300 м
[Cb cap Ci fib]
+32.0 +26.2 71 +48 +65 опасность
перегрева
1007.5 1008.0
06 22.01 Ю 2 25 км осадки на расстоянии 4/4
[Cb cap Ci ing]
+31.8 +26.7 74 +49 +51 опасность
перегрева
1004.9 1005.0
09 22.01 штиль 0 25 км осадки на расстоянии 3/1 300 м
[Cb cap Ci ing]
+28.5 +26.4 88 +43 +43 опасность
перегрева
1007.2 1007.0
12 22.01 штиль 0 25 км осадки на расстоянии 9/9
[Cb cap Cs]
+27.9 +26.5 92 +43 +43 опасность
перегрева
1008.5 1009.0 +33.5
18 22.01 штиль 0 20 км осадки на расстоянии 8/8
[Cu med, cong Cs]
+26.2 +25.7 97 +39 +39 очень
душно
1005.5 1006.0
21 22.01 20 км осадки на расстоянии н/о +26.5 +25.8 96 +39 +40 очень
душно
1007.0 1007.0
00 23.01 СЗ 3 20 км осадки на расстоянии 8/8
[Cu med, cong Ac trans Cs]
+30.4 +26.6 80 +47 +50 опасность
перегрева
1007.5 1008.0
03 23.01 СЗ 3 20 км осадки на расстоянии 5/5 600 м
[Cu Sc Ci fib]
+32.0 +26.4 72 +48 +56 опасность
перегрева
1005.9 1006.0
06 23.01 СЗ 3 20 км осадки на расстоянии 5/5 300 м
[Cb cap Ci fib]
+30.7 +22.9 63 +41 +42 опасность
перегрева
1004.9 1005.0
09 23.01 СЗ 2 20 км осадки на расстоянии 5/4 300 м
[Cu med, cong Ci fib]
+28.0 +26.6 92 +43 +43 опасность
перегрева
1006.8 1007.0
12 23.01 штиль 0 20 км в посл. час гроза 10/9
[Cb cap Ac As Cs]
+27.0 +26.3 96 +41 +41 опасность
перегрева
1008.1 1008.0 +32.6
21 23.01 В 1 20 км осадки на расстоянии 9/9
[Cb cap Ac trans Cs]
+27.0 +25.6 92 +40 +40 очень
душно
1007.8 1008.0
00 24.01 Ю 2 20 км осадки на расстоянии 9/8
[Cb cap Cs]
+31.4 +26.8 77 +49 +52 опасность
перегрева
1008.4 1008.0
03 24.01 штиль 0 20 км слаб. ливневой дождь 10/10
[Cb cap Ac As Cs]
+30.5 +26.3 78 +46 +46 опасность
перегрева
1006.8 1007.0
06 24.01 СВ 3 10 км слаб. ливневой дождь 10/9 600 м
[Cb cap]
+27.5 +26.1 92 +41 +42 опасность
перегрева
1006.3 1006.0 14
09 24.01 СВ 2 20 км слаб. морось 10/10
[Cb cap Ac As Cs]
+26.5 +25.4 94 +39 +39 очень
душно
1008.4 1008.0

 

Местоположение метеостанции Остров Таро (Соломоновы Острова): широта -6.71 долгота 156.40 высота над уровнем моря 3 м.

В архиве по умолчанию представлена погода на Острове Таро за последнюю неделю. Архивные данные за месяц целиком и за предыдущие месяцы, начиная с января 2011 года, Вы можете получить, выбрав интересующий диапазон дат из раскрывающегося списка и нажав кнопку "Ввод!".


*Определитесь, кто Вы:
робот инопланетянин человек

Внимание! Время в таблицах - всемирное. Для получения местного времени необходимо прибавить поправку, которая равна 11 ч.

Смотрите также архив погоды в соседних городах и на ближайших метеорологических станциях:

Погода в Манде (Соломоновы Острова) (204 км)
Погода в Хониаре (Соломоновы Острова) (495 км)
Погода в Хониара аэропорту (Соломоновы Острова) (502 км)
Погода в Токуа (Папуа Новая Гвинея) (520 км)
Погода в Ауки (Соломоновы Острова) (530 км)
Погода на Мисиме (Папуа Новая Гвинея) (591 км)
Погода в Кавиенге (Папуа Новая Гвинея) (772 км)
Погода в Герни (Папуа Новая Гвинея) (778 км)
Погода на Атолле Капингамаранги (Микронезия) (885 км)
Погода в Порт-Морсби (Папуа Новая Гвинея) (1055 км)

Пояснения к столбцам:

Ветер - указаны скорость ветра в м/с - средняя за 10 мин, порывы в срок и между сроками (в фигурных скобках) и направление, откуда дует ветер: С - северный, СВ - северо-восточный, В - восточный, ЮВ - юго-восточный, Ю - южный, ЮЗ - юго-западный, З - западный, СЗ - северо-западный.
Видимость - горизонтальная дальность видимости в метрах или километрах. При видимости от 1 до 10 км при отсутствии осадков обычно наблюдается дымка, при ухудшении видимости до 1 км и менее - туман. В сухую погоду видимость может ухудшаться дымом, пылью или мглою.
Явления - указаны атмосферные явления, наблюдавшиеся в срок или в последний час перед сроком; фигурными скобками обозначены явления, наблюдавшиеся между сроками (за 1-3 часа до срока); квадратными скобками обозначены град или гололедные отложения с указанием их диаметра в мм.
Облачность - указаны через наклонную черту общая и нижняя облачность в баллах и высота нижней границы облаков в метрах; квадратными скобками обозначены формы облаков: Ci - перистые, Cs - перисто-слоистые, Cc - перисто-кучевые, Ac - высококучевые, As - высокослоистые, Sc - слоисто-кучевые, Ns - слоисто-дождевые, Cu - кучевые, Cb - кучево-дождевые. Подробнее классификацию облаков см. в Атласе облаков (PDF).
T - Температура воздуха - температура, измеренная на высоте 2 м над землей.
Td - Температура точки росы - температура, при понижении до которой содержащийся в воздухе водяной пар достигнет насыщения.
f - Относительная влажность воздуха - влажноcть воздуха, измеренная на высоте 2 м над землей.
Te - Эффективная температура - температура, которую ощущает одетый по сезону человек в тени. Характеристика душности погоды. При расчете учитывается влияние влажности воздуха и скорости ветра на теплоощущения человека.
Tes - Эффективная температура на солнце - температура, которую ощущает человек, с поправкой на солнечный нагрев. Характеристика знойности погоды. Зависит от высоты солнца над горизонтом, облачности и скорости ветра. Ночью, в пасмурную погоду, а также при ветре 12 м/с и более поправка равна нулю.
P - Атмосферное давление - приведенное к уровню моря атмосферное давление.
Po - Атмосферное давление - измеренное на уровне метеостанции атмосферное давление.
Tmin - Минимальная температура - минимум температуры воздуха на высоте 2 м над землей.
Tmax - Максимальная температура - максимум температуры воздуха на высоте 2 м над землей.
R - Количество осадков - Количество выпавших осадков за период времени, мм. При наведении курсора мыши на число - период времени, за который выпало указанное количество осадков.
R24 - Количество осадков - Количество выпавших осадков за 24 часа, мм.
S - Снежный покров - Высота снежного покрова, см. При наведении курсора мыши на число - состояние снежного покрова и степень покрытия местности в баллах.